[[{"header":{"parameterUnit":"m.s-1","parameterCategory":1,"la1":30.2991,"la2":30.254,"lo1":-89.0895,"lo2":-89.0444,"dy":0.0017,"dx":0.0017,"nx":28,"ny":28,"refTime":"2024-05-18T03:00:00:Z","depth":0,"parameterNumber":2,"parameterNumberName":"U-component_of_WINDS"},"data":[0,0,0,0,0,0,0,0,0,0,0,0,0,0,0,0,0,0,0,0,0,0,0,0,0,0,0,0,0,0,0,0,0,0,0,0,0,0,0,0,0,0,0,0,0,0,0,0,0,0,0,0,0,0,0,0,0,0,2.3946,2.3947,0,2.4043,2.4044,2.4046,2.3993,2.3991,2.3988,2.3986,2.4087,2.4092,2.4097,0,0,0,0,0,0,0,0,0,0,0,0,0,2.3714,2.3719,2.3945,2.3947,2.3948,2.4043,2.4045,2.4046,2.3994,2.3991,2.3987,2.3984,2.4085,2.4092,2.4098,0,0,0,0,0,0,0,0,0,0,0,0,0,2.3814,2.372,2.3945,2.3933,2.3933,2.4043,2.4045,2.4046,2.3994,2.399,2.3987,2.3983,2.4083,2.4091,2.4099,2.4226,0,0,2.4122,2.4126,0,0,0,0,0,0,0,0,2.3808,2.3822,2.3934,2.3934,2.3935,2.4002,2.4,2.4107,2.3995,2.3971,2.3985,2.3981,2.4062,2.4071,2.4099,2.4231,2.4235,2.4123,2.4128,2.4131,2.4133,0,0,0,0,0,0,0,2.3801,2.3818,2.3984,2.3936,2.3936,2.3923,2.3933,2.402,2.4038,2.3973,2.397,2.3982,2.4062,2.4091,2.4101,2.4237,2.4123,2.413,2.4135,2.4138,2.4478,2.4482,0,0,0,0,0,0,2.3795,2.3812,2.3981,2.3987,2.386,2.3931,2.3942,2.3984,2.4037,2.4041,2.3985,2.3979,2.408,2.4092,2.4104,2.4256,2.4131,2.4138,2.4143,2.4473,2.4479,2.4483,0,0,0,0,0,0,2.379,2.3811,2.3977,2.3899,2.3919,2.3939,2.3987,2.3988,2.4018,2.4046,2.4049,2.4012,2.4077,2.4093,2.4196,2.4259,2.4142,2.4149,2.4468,2.4475,2.4481,2.4562,0,0,0,0,0,0,2.3784,2.3809,2.3858,2.39,2.3923,2.4068,2.3991,2.3993,2.4031,2.4024,2.4072,2.4076,2.4075,2.4185,2.4204,2.4268,2.4155,2.4463,2.4471,2.4479,2.4554,2.4571,2.4585,0,0,0,0,0,2.3776,2.3877,2.386,2.3881,2.3985,2.4071,2.4085,2.4081,2.4037,2.4086,2.4103,2.4074,2.4249,2.4195,2.4216,2.4284,2.4459,2.4469,2.4478,2.4547,2.4568,2.4585,0,0,0,0,0,0,2.3842,2.3883,2.3864,2.3983,2.4024,2.4062,2.4124,2.4103,2.4158,2.415,2.4143,2.4155,2.4262,2.4283,2.4223,2.441,2.4347,2.4361,2.4392,2.4412,2.4427,2.442,2.4161,0,0,0,0,0,2.387,2.3937,2.3969,2.407,2.4092,2.4104,2.4142,2.4136,2.4179,2.4196,2.4221,2.4264,2.4328,2.4371,2.4432,2.4556,2.4566,2.4613,2.4629,2.4641,2.4654,2.4722,2.4743,2.4516,2.4516,2.4515,0,0,2.393,2.396,2.4003,2.4084,2.4115,2.4185,2.412,2.4196,2.4248,2.4208,2.4306,2.4326,2.4374,2.4488,2.4539,2.4509,2.4719,2.4654,2.4664,2.467,2.4734,2.4755,2.4774,2.4522,2.4521,2.452,0,0,2.4074,2.4103,2.4191,2.4223,2.4271,2.4278,2.4299,2.4341,2.4353,2.4451,2.4423,2.4484,2.4595,2.463,2.4662,2.4818,2.4793,2.4838,2.492,2.4985,2.5003,2.5019,2.5075,2.5095,2.485,2.4851,2.4851,0,2.4142,2.4245,2.4238,2.4317,2.4354,2.432,2.4408,2.444,2.4506,2.4532,2.4496,2.4634,2.4664,2.4786,2.4824,2.4851,2.4875,2.4833,2.5001,2.5017,2.5031,2.5085,2.5106,2.4856,2.4855,2.4855,2.4854,0,2.4326,2.4398,2.4463,2.4527,2.457,2.4654,2.466,2.4705,2.4695,2.4706,2.4807,2.4841,2.4908,2.4936,2.4927,2.5057,2.5036,2.5001,2.4938,2.5058,2.5108,2.5129,2.4863,2.4861,2.486,2.4858,0,0,2.4516,2.4574,2.4598,2.4626,2.4676,2.4731,2.4813,2.4878,2.4917,2.4963,2.5031,2.5125,2.5093,2.5129,2.5124,2.5181,2.5303,2.5139,2.514,2.5169,2.5448,2.5474,2.5498,2.5286,2.529,2.5293,2.5444,0,2.4663,2.4805,2.4801,2.4934,2.5,2.4969,2.504,2.5078,2.509,2.5149,2.5162,2.523,2.5182,2.5203,2.5259,2.5276,2.5359,2.5265,2.535,2.5353,2.534,2.5524,2.5553,2.5693,2.5463,2.5467,2.5469,0,2.4855,2.4906,2.5045,2.5085,2.5112,2.5176,2.5235,2.5291,2.5334,2.5339,2.5379,2.5364,2.5447,2.5381,2.5495,2.5431,2.5465,2.5479,2.5484,2.5493,2.5419,2.5538,2.5738,2.5759,2.55,2.5497,2.5495,0,2.4979,2.5084,2.518,2.5205,2.5254,2.5299,2.5322,2.536,2.5399,2.545,2.5476,2.5536,2.557,2.5617,2.5618,2.557,2.5734,2.5668,2.574,2.5741,2.5777,2.5775,2.5986,2.5798,2.5798,2.5798,2.5797,0,2.5145,2.5231,2.5237,2.5297,2.5392,2.5387,2.5482,2.5499,2.5534,2.5596,2.5572,2.5631,2.563,2.569,2.5692,2.5786,2.5801,2.5808,2.5807,2.581,2.581,2.5833,2.5824,2.5803,2.5802,2.5801,2.58,0,2.5301,2.5308,2.5412,2.5448,2.5459,2.5529,2.556,2.5617,2.5626,2.5706,2.5724,2.574,2.5809,2.5815,2.5896,2.5897,2.6011,2.6,2.5997,2.5995,2.6068,2.6061,2.6302,2.6333,2.6125,2.6127,2.6129,0,2.5407,2.5472,2.5516,2.5556,2.558,2.5645,2.5684,2.5681,2.5723,2.5776,2.5826,2.5893,2.5947,2.6059,2.6078,2.6139,2.613,2.621,2.6139,2.614,2.6131,2.6128,2.6134,2.6224,2.6226,2.6228,2.623,0,2.5593,2.5593,2.5651,2.571,2.5758,2.5804,2.5847,2.5881,2.5883,2.5931,2.6002,2.6043,2.6125,2.6192,2.6252,2.6275,2.6253,2.6252,2.6272,2.6276,2.6272,2.6275,2.6035,2.6246,2.6245,2.6244,2.6243,2.6242,2.5728,2.5785,2.5824,2.5889,2.5921,2.5961,2.6016,2.6032,2.6091,2.6157,2.6151,2.6229,2.6269,2.6348,2.6375,2.6436,2.6409,2.6438,2.6446,2.6453,2.6461,2.6261,2.6447,2.6446,2.6446,2.6446,2.6445,0,2.5914,2.5937,2.5997,2.6057,2.6108,2.6082,2.6128,2.6173,2.6242,2.6281,2.6333,2.6414,2.6479,2.6502,2.6565,2.6609,2.6601,2.6626,2.6623,2.6628,2.6481,2.6458,2.6632,2.6631,2.6631,2.6631,2.6631,2.6631,2.6016,2.6111,2.6115,2.6225,2.6248,2.6324,2.6353,2.639,2.6421,2.6512,2.6565,2.658,2.6612,2.6677,2.6735,2.674,2.6765,2.6794,2.6795,2.6658,2.6639,2.6621,2.6599,2.68,2.68,2.6937,2.6939,2.694]},{"header":{"parameterUnit":"m.s-1","parameterCategory":1,"la1":30.2991,"la2":30.254,"lo1":-89.0895,"lo2":-89.0444,"dy":0.0017,"dx":0.0017,"nx":28,"ny":28,"refTime":"2024-05-18T03:00:00:Z","depth":0,"parameterNumber":3,"parameterNumberName":"V-component_of_WINDS"},"data":[0,0,0,0,0,0,0,0,0,0,0,0,0,0,0,0,0,0,0,0,0,0,0,0,0,0,0,0,0,0,0,0,0,0,0,0,0,0,0,0,0,0,0,0,0,0,0,0,0,0,0,0,0,0,0,0,0,0,-0.0684,-0.0684,0,-0.0695,-0.0695,-0.0695,-0.0729,-0.073,-0.0731,-0.0732,-0.0741,-0.0741,-0.074,0,0,0,0,0,0,0,0,0,0,0,0,0,-0.0693,-0.0693,-0.0684,-0.0684,-0.0684,-0.0695,-0.0695,-0.0695,-0.0729,-0.073,-0.0731,-0.0732,-0.0741,-0.0741,-0.074,0,0,0,0,0,0,0,0,0,0,0,0,0,-0.0695,-0.0693,-0.0684,-0.0703,-0.0705,-0.0695,-0.0695,-0.0695,-0.0729,-0.073,-0.0731,-0.0732,-0.0741,-0.0741,-0.074,-0.0713,0,0,-0.0738,-0.0738,0,0,0,0,0,0,0,0,-0.0695,-0.0695,-0.07,-0.0701,-0.0703,-0.0712,-0.0702,-0.0701,-0.0729,-0.072,-0.0732,-0.0733,-0.073,-0.0731,-0.073,-0.0713,-0.0714,-0.0738,-0.0737,-0.0737,-0.0737,0,0,0,0,0,0,0,-0.0695,-0.0694,-0.0688,-0.07,-0.0702,-0.071,-0.0712,-0.0702,-0.0718,-0.0721,-0.0723,-0.0724,-0.0732,-0.0731,-0.0731,-0.0714,-0.0738,-0.0737,-0.0737,-0.0737,-0.0676,-0.0674,0,0,0,0,0,0,-0.0692,-0.0694,-0.0688,-0.0689,-0.0702,-0.0709,-0.0711,-0.0708,-0.0719,-0.0721,-0.0723,-0.0726,-0.0731,-0.0731,-0.0731,-0.07,-0.0737,-0.0737,-0.0736,-0.0677,-0.0675,-0.0674,0,0,0,0,0,0,-0.0692,-0.0691,-0.0688,-0.0692,-0.0692,-0.0708,-0.0704,-0.0708,-0.0707,-0.072,-0.0724,-0.0719,-0.0732,-0.0732,-0.0717,-0.0701,-0.0736,-0.0736,-0.0678,-0.0676,-0.0675,-0.0637,0,0,0,0,0,0,-0.0692,-0.0691,-0.0681,-0.0692,-0.0692,-0.0673,-0.0703,-0.0707,-0.0706,-0.0709,-0.0717,-0.072,-0.0733,-0.0718,-0.0717,-0.07,-0.0735,-0.068,-0.0677,-0.0675,-0.064,-0.0634,-0.0629,0,0,0,0,0,-0.0692,-0.0669,-0.068,-0.0679,-0.0679,-0.0672,-0.0673,-0.0689,-0.0704,-0.0694,-0.0703,-0.072,-0.0703,-0.0716,-0.0715,-0.0698,-0.0681,-0.0678,-0.0675,-0.0642,-0.0635,-0.0629,0,0,0,0,0,0,-0.0655,-0.0671,-0.0683,-0.0663,-0.0666,-0.0678,-0.0666,-0.0681,-0.0679,-0.0682,-0.0702,-0.0704,-0.0686,-0.0691,-0.0705,-0.0673,-0.0695,-0.0692,-0.067,-0.0663,-0.0658,-0.0657,-0.0734,0,0,0,0,0,-0.0644,-0.0638,-0.0652,-0.0633,-0.0634,-0.0649,-0.0647,-0.0659,-0.0663,-0.0665,-0.0673,-0.0676,-0.0671,-0.0668,-0.0664,-0.0641,-0.0643,-0.0629,-0.0624,-0.0619,-0.0616,-0.0604,-0.0598,-0.0665,-0.0665,-0.0665,0,0,-0.0622,-0.063,-0.0624,-0.0625,-0.0629,-0.0622,-0.065,-0.0641,-0.0636,-0.0663,-0.065,-0.0656,-0.0661,-0.0642,-0.0634,-0.0645,-0.0598,-0.0616,-0.0612,-0.0611,-0.0601,-0.0594,-0.0589,-0.0663,-0.0664,-0.0664,0,0,-0.0578,-0.0583,-0.0568,-0.0572,-0.0578,-0.0589,-0.0585,-0.0596,-0.0601,-0.0588,-0.0609,-0.0603,-0.0595,-0.0597,-0.0598,-0.0556,-0.0572,-0.0555,-0.0527,-0.0515,-0.051,-0.0505,-0.049,-0.0485,-0.0552,-0.0552,-0.0552,0,-0.0549,-0.0539,-0.0558,-0.0548,-0.0548,-0.0573,-0.0558,-0.0561,-0.0565,-0.0564,-0.0578,-0.0569,-0.0574,-0.0556,-0.0546,-0.0545,-0.0541,-0.0553,-0.0509,-0.0505,-0.0501,-0.0487,-0.0481,-0.055,-0.055,-0.055,-0.055,0,-0.0504,-0.0497,-0.0483,-0.0488,-0.0487,-0.0474,-0.0491,-0.0487,-0.05,-0.0509,-0.0496,-0.0503,-0.0502,-0.0499,-0.0511,-0.0483,-0.049,-0.0506,-0.0528,-0.0492,-0.0479,-0.0474,-0.0546,-0.0547,-0.0548,-0.0548,0,0,-0.0434,-0.0451,-0.0446,-0.0448,-0.0458,-0.0453,-0.0441,-0.0441,-0.0437,-0.044,-0.0431,-0.0424,-0.0439,-0.044,-0.0452,-0.0442,-0.0409,-0.046,-0.046,-0.045,-0.0378,-0.0366,-0.0359,-0.042,-0.0419,-0.0418,-0.0378,0,-0.0392,-0.0374,-0.0391,-0.0369,-0.0363,-0.0388,-0.0379,-0.0383,-0.0392,-0.0388,-0.0398,-0.0393,-0.0413,-0.0414,-0.0405,-0.0415,-0.0395,-0.0418,-0.0411,-0.0411,-0.0408,-0.0352,-0.0339,-0.03,-0.0373,-0.0372,-0.0372,0,-0.034,-0.0341,-0.0319,-0.0331,-0.0329,-0.0319,-0.0321,-0.0317,-0.0323,-0.033,-0.0331,-0.0348,-0.0337,-0.036,-0.0347,-0.0362,-0.0361,-0.0365,-0.0364,-0.0363,-0.0388,-0.0349,-0.0288,-0.0282,-0.0364,-0.0364,-0.0365,0,-0.0291,-0.0287,-0.0274,-0.0275,-0.0289,-0.0282,-0.0287,-0.0294,-0.0293,-0.0295,-0.0294,-0.0294,-0.0294,-0.0293,-0.0309,-0.0325,-0.0293,-0.0318,-0.0299,-0.0298,-0.029,-0.029,-0.0227,-0.029,-0.0291,-0.0291,-0.0291,0,-0.0242,-0.0227,-0.0252,-0.0243,-0.0228,-0.0248,-0.0232,-0.024,-0.0247,-0.024,-0.0262,-0.0255,-0.0277,-0.0273,-0.0285,-0.0272,-0.0272,-0.0277,-0.028,-0.0275,-0.0274,-0.0273,-0.0276,-0.0289,-0.0289,-0.029,-0.029,0,-0.0184,-0.02,-0.0187,-0.0201,-0.0205,-0.0192,-0.0205,-0.0197,-0.0209,-0.02,-0.0199,-0.0216,-0.0212,-0.0229,-0.0227,-0.0236,-0.0216,-0.0224,-0.0213,-0.0216,-0.0196,-0.0197,-0.0129,-0.0121,-0.019,-0.0189,-0.0189,0,-0.015,-0.014,-0.0154,-0.0151,-0.0155,-0.0151,-0.015,-0.017,-0.0169,-0.0176,-0.0167,-0.0166,-0.0165,-0.0158,-0.017,-0.0169,-0.0177,-0.0154,-0.0177,-0.0172,-0.0176,-0.0176,-0.0175,-0.0148,-0.0147,-0.0147,-0.0146,0,-0.009,-0.0099,-0.0097,-0.0098,-0.0097,-0.0099,-0.0102,-0.0099,-0.0121,-0.0118,-0.0115,-0.0114,-0.0114,-0.0111,-0.0114,-0.0119,-0.0136,-0.0139,-0.0134,-0.0128,-0.0122,-0.0124,-0.0199,-0.014,-0.0141,-0.0141,-0.0141,-0.0142,-0.0043,-0.0035,-0.0043,-0.0041,-0.0046,-0.0049,-0.0043,-0.0054,-0.0051,-0.0052,-0.0065,-0.0059,-0.0067,-0.0071,-0.0075,-0.0071,-0.0082,-0.0076,-0.0074,-0.0072,-0.0068,-0.0123,-0.0072,-0.0072,-0.0072,-0.0072,-0.0073,0,0.0018,0.001,0.0013,0.0008,0.001,-0.0008,-0.0012,-0.001,-0.0004,-0.001,-0.001,-0.0006,-0.0004,-0.0017,-0.0017,-0.0011,-0.0019,-0.0011,-0.0011,-0.0012,-0.0058,-0.0062,-0.0004,-0.0004,-0.0004,-0.0004,-0.0004,-0.0005,0.0049,0.0062,0.0052,0.0062,0.0054,0.0059,0.0058,0.0055,0.005,0.0055,0.0056,0.0048,0.0039,0.0038,0.0039,0.0035,0.0036,0.0047,0.0041,-0.0002,-0.0008,-0.0015,-0.0018,0.0048,0.0048,0.0087,0.0088,0.0088]}]]